Location: Whitehorse
(60.7170°N, 135.0500°W)
Time: 02:01:47
(UTC-08:00)

SL-16 R/B - Visible Passes

Search period start: 18 January 2017 00:00
Search period end: 28 January 2017 00:00
Orbit: 843 x 847 km, 71.0° (Epoch: 17 January)

Date Brightness Start Highest point End Pass type
(mag) Time Alt. Az. Time Alt. Az. Time Alt. Az.
18 Jan 4.0 05:46:41 19° S 05:46:41 19° S 05:48:15 10° S visible
18 Jan 4.1 20:39:01 10° SSW 20:40:13 17° S 20:40:13 17° S visible
19 Jan 4.5 05:33:53 12° S 05:33:53 12° S 05:34:13 10° SSE visible
19 Jan 4.1 18:45:01 10° ESE 18:45:34 11° ESE 18:45:34 11° ESE visible
19 Jan 3.5 20:24:58 10° S 20:27:31 26° S 20:27:31 26° S visible
19 Jan 4.7 22:08:55 10° WSW 22:09:28 13° WSW 22:09:28 13° WSW visible
20 Jan 3.9 18:31:07 10° ESE 18:32:47 12° ESE 18:32:47 12° ESE visible
20 Jan 2.9 20:10:56 10° S 20:14:43 37° SSE 20:14:43 37° SSE visible
20 Jan 4.2 21:54:50 10° WSW 21:56:40 21° WSW 21:56:40 21° WSW visible
21 Jan 3.9 18:17:14 10° ESE 18:19:28 12° E 18:19:54 12° E visible
21 Jan 2.5 19:56:53 10° S 20:01:50 46° SE 20:01:50 46° SE visible
21 Jan 3.6 21:40:45 10° WSW 21:43:46 32° WSW 21:43:46 32° WSW visible
22 Jan 3.9 18:03:21 10° ESE 18:05:25 12° E 18:06:55 11° ENE visible
22 Jan 2.4 19:42:51 10° S 19:48:13 46° ESE 19:48:50 44° E visible
22 Jan 3.1 21:26:40 10° WSW 21:30:46 45° W 21:30:46 45° W visible
22 Jan 4.9 23:12:20 10° WNW 23:12:41 12° WNW 23:12:41 12° WNW visible
23 Jan 4.0 17:49:29 10° ESE 17:51:24 12° E 17:53:18 10° ENE visible
23 Jan 2.5 19:28:49 10° S 19:34:09 45° ESE 19:35:45 36° ENE visible
23 Jan 2.6 21:12:35 10° WSW 21:17:40 59° WNW 21:17:40 59° WNW visible
23 Jan 4.6 22:58:14 10° W 22:59:35 16° WNW 22:59:35 16° WNW visible
24 Jan 2.5 19:14:47 10° S 19:20:06 44° ESE 19:22:34 28° ENE visible
24 Jan 2.5 20:58:30 10° WSW 21:04:08 64° NW 21:04:29 62° NNW visible
24 Jan 4.4 22:44:07 10° W 22:46:23 21° WNW 22:46:23 21° WNW visible
25 Jan 2.6 19:00:45 10° S 19:06:03 43° ESE 19:09:17 22° ENE visible
25 Jan 2.5 20:44:25 10° SW 20:50:03 65° NW 20:51:11 52° N visible
25 Jan 4.1 22:30:01 10° W 22:33:06 26° NW 22:33:06 26° NW visible
26 Jan 2.6 18:46:43 10° S 18:52:00 42° ESE 18:55:57 17° NE visible
26 Jan 2.5 20:30:20 10° SW 20:35:59 66° NW 20:37:51 42° NNE visible
26 Jan 3.8 22:15:56 10° W 22:19:45 30° NW 22:19:45 30° NW visible
27 Jan 2.7 18:32:40 10° S 18:37:56 41° ESE 18:42:33 13° NE visible
27 Jan 2.4 20:16:15 10° SW 20:21:54 67° NW 20:24:26 33° NNE visible
27 Jan 3.7 22:01:49 10° W 22:06:20 33° NNW 22:06:20 33° NNW visible
27 Jan 4.9 23:47:33 10° NW 23:48:14 13° NW 23:48:14 13° NW visible
